Mackinac Island, MI

5:14 PM EST on February 08, 2016 (GMT -0500)
Mackinac Island

Weather History for KMCD - April, 2014

Change the Weather History Date:

Thursday, April 3, 2014

  Actual Average Record
Temperature  
Mean Temperature 24 °F -  
Max Temperature 32 °F 38 °F 61 °F (1981)
Min Temperature 16 °F 24 °F 16 °F (1982)
Degree Days  
Heating Degree Days 41    
Moisture  
Dew Point 21 °F    
Average Humidity 82    
Maximum Humidity 97    
Minimum Humidity 66    
Precipitation  
Precipitation 0.00 in - - ()
Sea Level Pressure  
Sea Level Pressure 30.17 in    
Wind  
Wind Speed 7 mph (ENE)    
Max Wind Speed 17 mph    
Max Gust Speed 25 mph    
Visibility 10 miles    
Events      
Averages and records for this station are not official NWS values.
T = Trace of Precipitation, MM = Missing Value Source: NWS Daily Summary

Daily Weather History Graph

Daily Weather History Graph

Search for Another Location

Airport or City:

Trip Planner

Search our weather history database for the weather conditions in past years. The results will help you decide how hot, cold, wet, or windy it might be!

Date:

Astronomy

Apr. 03, 2014 Rise Set
Actual Time 7:14 AM EDT 8:09 PM EDT
Civil Twilight 6:44 AM EDT 8:39 PM EDT
Nautical Twilight 6:08 AM EDT 9:16 PM EDT
Astronomical Twilight 5:30 AM EDT 9:54 PM EDT
Moon 9:32 AM EDT (4/3) No Moon Set
Length of Visible Light 13h 55m
Length of Day
12h 54m
Waxing Crescent, 17% of the Moon is Illuminated
Apr 3
Waxing Crescent
Apr 7
First Quarter
Apr 15
Full
Apr 22
Last Quarter
Apr 29
New

Hourly Weather History & Observations

Time (EDT) Temp. Windchill Dew Point Humidity Pressure Visibility Wind Dir Wind Speed Gust Speed Precip Events Conditions
12:16 AM 22.3 °F 16.1 °F 18.7 °F 86% 30.25 in 10.0 mi North 4.6 mph - N/A   Clear
12:36 AM 21.4 °F 13.8 °F 18.5 °F 89% 30.25 in 10.0 mi NNE 5.8 mph - N/A   Clear
12:56 AM 21.2 °F 12.6 °F 18.3 °F 89% 30.25 in 10.0 mi NNE 6.9 mph - N/A   Clear
1:16 AM 20.5 °F 11.7 °F 18.5 °F 92% 30.25 in 10.0 mi North 6.9 mph - N/A   Clear
1:36 AM 21.6 °F 15.3 °F 18.7 °F 89% 30.26 in 10.0 mi NNE 4.6 mph - N/A   Clear
1:56 AM 20.1 °F 13.6 °F 18.1 °F 92% 30.26 in 10.0 mi NNE 4.6 mph - N/A   Clear
2:16 AM 19.0 °F 10.0 °F 17.1 °F 92% 30.26 in 10.0 mi NNE 6.9 mph - N/A   Clear
2:36 AM 19.4 °F - 18.0 °F 94% 30.26 in 10.0 mi Calm Calm - N/A   Clear
2:56 AM 18.3 °F - 16.9 °F 94% 30.26 in 10.0 mi Calm Calm - N/A   Clear
3:16 AM 18.1 °F 12.9 °F 16.5 °F 93% 30.26 in 10.0 mi SSE 3.5 mph - N/A   Clear
3:36 AM 18.3 °F - 16.9 °F 94% 30.25 in 10.0 mi Calm Calm - N/A   Clear
3:56 AM 17.1 °F - 15.8 °F 95% 30.25 in 10.0 mi Calm Calm - N/A   Clear
4:17 AM 16.5 °F 11.0 °F 15.6 °F 96% 30.25 in 10.0 mi NE 3.5 mph - N/A   Clear
4:36 AM 17.4 °F 12.1 °F 16.7 °F 97% 30.24 in 10.0 mi NE 3.5 mph - N/A   Clear
4:56 AM 17.4 °F 10.4 °F 16.5 °F 96% 30.24 in 10.0 mi ENE 4.6 mph - N/A   Clear
5:17 AM 17.1 °F 8.7 °F 16.3 °F 97% 30.22 in 10.0 mi NE 5.8 mph - N/A   Clear
5:36 AM 18.5 °F 11.7 °F 17.6 °F 96% 30.24 in 10.0 mi East 4.6 mph - N/A   Clear
5:56 AM 17.1 °F 7.6 °F 16.3 °F 97% 30.23 in 10.0 mi NE 6.9 mph - N/A   Clear
6:16 AM 17.6 °F 12.3 °F 16.9 °F 97% 30.24 in 10.0 mi ENE 3.5 mph - N/A   Clear
6:36 AM 16.5 °F 8.1 °F 15.6 °F 96% 30.22 in 10.0 mi East 5.8 mph - N/A   Clear
6:56 AM 16.7 °F 7.2 °F 15.8 °F 96% 30.24 in 10.0 mi ENE 6.9 mph - N/A   Clear
7:16 AM 17.6 °F 8.2 °F 16.7 °F 96% 30.24 in 10.0 mi ENE 6.9 mph - N/A   Clear
7:36 AM 19.0 °F 10.0 °F 18.3 °F 97% 30.25 in 10.0 mi ENE 6.9 mph - N/A   Clear
7:56 AM 19.9 °F 10.1 °F 19.0 °F 96% 30.26 in 10.0 mi ENE 8.1 mph - N/A   Clear
8:16 AM 20.3 °F 10.6 °F 19.2 °F 96% 30.25 in 10.0 mi ENE 8.1 mph - N/A   Clear
8:36 AM 20.5 °F 10.8 °F 19.2 °F 95% 30.25 in 10.0 mi ENE 8.1 mph - N/A   Clear
8:56 AM 20.8 °F 10.4 °F 19.2 °F 93% 30.24 in 10.0 mi ENE 9.2 mph - N/A   Clear
9:16 AM 22.3 °F 12.2 °F 19.9 °F 91% 30.23 in 10.0 mi ENE 9.2 mph - N/A   Clear
9:37 AM 23.4 °F 12.2 °F 20.3 °F 88% 30.23 in 10.0 mi East 11.5 mph - N/A   Clear
9:56 AM 25.5 °F 15.5 °F 21.2 °F 84% 30.22 in 10.0 mi ENE 10.4 mph 18.4 mph N/A   Clear
10:16 AM 26.6 °F 15.7 °F 22.1 °F 83% 30.21 in 10.0 mi ENE 12.7 mph 17.3 mph N/A   Clear
10:37 AM 27.9 °F 18.4 °F 22.5 °F 80% 30.20 in 10.0 mi East 10.4 mph 20.7 mph N/A   Clear
10:56 AM 28.4 °F 18.0 °F 22.6 °F 79% 30.20 in 10.0 mi East 12.7 mph 23.0 mph N/A   Clear
11:16 AM 28.8 °F 16.6 °F 21.9 °F 76% 30.21 in 10.0 mi East 17.3 mph 23.0 mph N/A   Scattered Clouds
11:36 AM 28.9 °F 18.6 °F 21.6 °F 74% 30.21 in 10.0 mi East 12.7 mph 23.0 mph N/A   Overcast
11:56 AM 28.8 °F 17.5 °F 20.8 °F 72% 30.21 in 10.0 mi East 15.0 mph 23.0 mph N/A   Overcast
12:16 PM 29.1 °F 19.4 °F 21.4 °F 73% 30.20 in 10.0 mi East 11.5 mph 18.4 mph N/A   Mostly Cloudy
12:36 PM 30.9 °F 19.8 °F 22.1 °F 70% 30.20 in 10.0 mi East 16.1 mph 21.9 mph N/A   Scattered Clouds
12:56 PM 30.7 °F 19.6 °F 22.1 °F 70% 30.19 in 10.0 mi East 16.1 mph 25.3 mph N/A   Mostly Cloudy
1:17 PM 30.7 °F 20.0 °F 21.0 °F 67% 30.17 in 10.0 mi East 15.0 mph 23.0 mph N/A   Overcast
1:36 PM 30.9 °F 21.2 °F 21.4 °F 68% 30.16 in 10.0 mi East 12.7 mph 20.7 mph N/A   Overcast
1:57 PM 31.3 °F 20.7 °F 21.9 °F 68% 30.15 in 10.0 mi East 15.0 mph 24.2 mph N/A   Overcast
2:16 PM 31.1 °F 21.9 °F 22.5 °F 70% 30.15 in 10.0 mi East 11.5 mph 20.7 mph N/A   Overcast
2:36 PM 31.1 °F 23.1 °F 22.5 °F 70% 30.15 in 10.0 mi East 9.2 mph 20.7 mph N/A   Overcast
2:57 PM 31.1 °F 23.1 °F 22.8 °F 71% 30.14 in 10.0 mi East 9.2 mph 21.9 mph N/A   Overcast
3:16 PM 31.8 °F 23.3 °F 23.7 °F 72% 30.14 in 10.0 mi East 10.4 mph 21.9 mph N/A   Overcast
3:36 PM 32.0 °F 22.5 °F 23.0 °F 69% 30.12 in 10.0 mi East 12.7 mph 23.0 mph N/A   Overcast
3:57 PM 32.2 °F 23.2 °F 24.1 °F 72% 30.11 in 10.0 mi East 11.5 mph 20.7 mph N/A   Overcast
4:16 PM 32.2 °F 25.8 °F 23.7 °F 71% 30.11 in 10.0 mi East 6.9 mph 17.3 mph N/A   Overcast
4:36 PM 32.2 °F 22.7 °F 23.2 °F 69% 30.10 in 10.0 mi East 12.7 mph 19.6 mph N/A   Overcast
4:56 PM 32.5 °F 24.2 °F 23.2 °F 68% 30.08 in 10.0 mi East 10.4 mph 20.7 mph N/A   Overcast
5:16 PM 32.2 °F 23.2 °F 23.0 °F 69% 30.07 in 10.0 mi East 11.5 mph 19.6 mph N/A   Overcast
5:37 PM 32.2 °F 23.8 °F 23.5 °F 70% 30.05 in 10.0 mi East 10.4 mph - N/A   Overcast
5:56 PM 32.4 °F 23.5 °F 23.5 °F 70% 30.05 in 10.0 mi East 11.5 mph 17.3 mph N/A   Overcast
6:17 PM 32.2 °F 23.8 °F 23.2 °F 69% 30.05 in 10.0 mi ESE 10.4 mph 17.3 mph N/A   Overcast
6:37 PM 32.5 °F 26.2 °F 23.2 °F 68% 30.06 in 10.0 mi ESE 6.9 mph 16.1 mph N/A   Overcast
6:56 PM 32.7 °F 24.5 °F 22.6 °F 66% 30.06 in 10.0 mi ESE 10.4 mph 17.3 mph N/A   Overcast
7:17 PM 32.4 °F 24.0 °F 22.8 °F 68% 30.04 in 10.0 mi East 10.4 mph 17.3 mph N/A   Overcast
7:37 PM 32.0 °F 25.6 °F 23.7 °F 71% 30.05 in 10.0 mi East 6.9 mph 16.1 mph N/A   Overcast
7:56 PM 31.8 °F 24.6 °F 25.7 °F 78% 30.04 in 10.0 mi East 8.1 mph - N/A   Overcast
8:17 PM 31.8 °F 23.3 °F 25.3 °F 77% 30.03 in 10.0 mi ESE 10.4 mph 17.3 mph N/A   Overcast
8:37 PM 32.0 °F 23.0 °F 25.2 °F 76% 30.02 in 10.0 mi East 11.5 mph 16.1 mph N/A   Overcast
8:56 PM 31.6 °F 23.1 °F 26.2 °F 80% 30.02 in 10.0 mi East 10.4 mph 16.1 mph N/A   Overcast
9:17 PM 31.6 °F 23.7 °F 27.1 °F 83% 30.02 in 10.0 mi East 9.2 mph - N/A   Overcast
9:56 PM 31.8 °F 24.6 °F 27.9 °F 85% 30.00 in 10.0 mi East 8.1 mph 16.1 mph N/A   Overcast
10:17 PM 32.0 °F 24.8 °F 28.0 °F 85% 29.98 in 10.0 mi East 8.1 mph 16.1 mph N/A   Overcast
10:36 PM 31.8 °F 23.3 °F 28.2 °F 87% 29.97 in 10.0 mi East 10.4 mph - N/A   Overcast
11:56 PM 32.0 °F 26.4 °F 28.9 °F 88% 29.96 in 10.0 mi East 5.8 mph - N/A   Overcast